• In Czech Republic
  • List of Countries
  • For 7 days
  • Water Temperature
  • Satellite Maps
  • Weather Map
  • Weather Widgets
  • user-avatar
    Login

    Hourly Weather Bekescsaba

    Today, 15 October, Monday

    Time Temperature Precipitation Wind Pressure Humidity
    00:00 +14°C° 0 mm 1 mps 760 mmHg 43%
    01:00 +14°C° 0 mm 1 mps 760 mmHg 45%
    02:00 +13°C° 0 mm 1 mps 760 mmHg 46%
    03:00 +13°C° 0 mm 1 mps 760 mmHg 47%
    04:00 +12°C° 0 mm 1 mps 760 mmHg 47%
    05:00 +13°C° 0 mm 1 mps 760 mmHg 47%
    06:00 +13°C° 0 mm 1 mps 760 mmHg 47%
    07:00 +13°C° 0 mm 1 mps 760 mmHg 47%
    08:00 +15°C° 0 mm 1 mps 760 mmHg 41%
    09:00 +18°C° 0 mm 1 mps 760 mmHg 35%
    10:00 +21°C° 0 mm 1 mps 760 mmHg 30%
    11:00 +22°C° 0 mm 1 mps 760 mmHg 27%
    12:00 +23°C° 0 mm 1 mps 760 mmHg 24%
    13:00 +24°C° 0 mm 1 mps 759 mmHg 22%
    14:00 +24°C° 0 mm 1 mps 759 mmHg 23%
    15:00 +23°C° 0 mm 1 mps 759 mmHg 24%
    16:00 +23°C° 0 mm 1 mps 758 mmHg 25%
    17:00 +21°C° 0 mm 1 mps 758 mmHg 27%
    18:00 +20°C° 0 mm 1 mps 758 mmHg 30%
    19:00 +18°C° 0 mm 1 mps 759 mmHg 32%
    20:00 +18°C° 0 mm 1 mps 759 mmHg 34%
    21:00 +16°C° 0 mm 1 mps 759 mmHg 36%
    22:00 +15°C° 0 mm 1 mps 759 mmHg 38%
    23:00 +15°C° 0 mm 1 mps 759 mmHg 39%

    Tomorrow, 16 October, Tuesday

    Time Temperature Precipitation Wind Pressure Humidity
    00:00 +14°C° 0 mm 1 mps 759 mmHg 41%
    01:00 +14°C° 0 mm 1 mps 759 mmHg 42%
    02:00 +14°C° 0 mm 1 mps 759 mmHg 43%
    03:00 +13°C° 0 mm 1 mps 759 mmHg 43%
    04:00 +13°C° 0 mm 1 mps 759 mmHg 44%
    05:00 +13°C° 0 mm 1 mps 759 mmHg 44%
    06:00 +13°C° 0 mm 1 mps 759 mmHg 43%
    07:00 +13°C° 0 mm 1 mps 760 mmHg 43%
    08:00 +16°C° 0 mm 1 mps 760 mmHg 38%
    09:00 +19°C° 0 mm 1 mps 760 mmHg 32%
    10:00 +21°C° 0 mm 1 mps 760 mmHg 27%
    11:00 +23°C° 0 mm 1 mps 759 mmHg 25%
    12:00 +24°C° 0 mm 1 mps 759 mmHg 23%
    13:00 +25°C° 0 mm 1 mps 759 mmHg 21%
    14:00 +25°C° 0 mm 1 mps 759 mmHg 22%
    15:00 +24°C° 0 mm 1 mps 758 mmHg 23%
    16:00 +23°C° 0 mm 1 mps 758 mmHg 24%
    17:00 +22°C° 0 mm 1 mps 758 mmHg 26%
    18:00 +19°C° 0 mm 2 mps 758 mmHg 28%
    19:00 +18°C° 0 mm 2 mps 759 mmHg 30%
    20:00 +17°C° 0 mm 2 mps 759 mmHg 31%
    21:00 +17°C° 0 mm 2 mps 759 mmHg 33%
    22:00 +16°C° 0 mm 1 mps 759 mmHg 35%
    23:00 +16°C° 0 mm 1 mps 759 mmHg 36%

    Day after tomorrow, 17 October, Wednesday

    Time Temperature Precipitation Wind Pressure Humidity
    00:00 +15°C° 0 mm 1 mps 759 mmHg 37%
    01:00 +15°C° 0 mm 1 mps 759 mmHg 39%
    02:00 +14°C° 0 mm 1 mps 759 mmHg 40%
    03:00 +14°C° 0 mm 1 mps 759 mmHg 40%
    04:00 +13°C° 0 mm 1 mps 758 mmHg 41%
    05:00 +14°C° 0 mm 1 mps 758 mmHg 41%
    06:00 +14°C° 0 mm 1 mps 759 mmHg 41%
    07:00 +14°C° 0 mm 1 mps 759 mmHg 41%
    08:00 +16°C° 0 mm 1 mps 758 mmHg 37%
    09:00 +19°C° 0 mm 1 mps 758 mmHg 32%
    10:00 +22°C° 0 mm 1 mps 758 mmHg 27%
    11:00 +23°C° 0 mm 1 mps 758 mmHg 25%
    12:00 +24°C° 0 mm 1 mps 757 mmHg 23%
    13:00 +25°C° 0 mm 2 mps 757 mmHg 21%
    14:00 +24°C° 0 mm 1 mps 757 mmHg 22%
    15:00 +24°C° 0 mm 1 mps 756 mmHg 23%
    16:00 +23°C° 0 mm 1 mps 756 mmHg 25%
    17:00 +22°C° 0 mm 1 mps 756 mmHg 27%
    18:00 +20°C° 0 mm 1 mps 756 mmHg 30%
    19:00 +19°C° 0 mm 1 mps 756 mmHg 33%
    20:00 +18°C° 0 mm 1 mps 756 mmHg 35%
    21:00 +18°C° 0 mm 1 mps 756 mmHg 37%
    22:00 +16°C° 0 mm 1 mps 756 mmHg 39%
    23:00 +16°C° 0 mm 1 mps 756 mmHg 41%

    18 October, Thursday

    Time Temperature Precipitation Wind Pressure Humidity
    00:00 +15°C° 0 mm 1 mps 756 mmHg 42%
    01:00 +15°C° 0 mm 1 mps 757 mmHg 43%
    02:00 +15°C° 0 mm 1 mps 756 mmHg 45%
    03:00 +13°C° 0 mm 0 mps 756 mmHg 47%
    04:00 +13°C° 0 mm 0 mps 756 mmHg 48%
    05:00 +13°C° 0 mm 0 mps 756 mmHg 49%
    06:00 +14°C° 0 mm 1 mps 756 mmHg 49%
    07:00 +15°C° 0 mm 1 mps 756 mmHg 49%
    08:00 +18°C° 0 mm 1 mps 756 mmHg 44%
    09:00 +20°C° 0 mm 1 mps 756 mmHg 39%
    10:00 +22°C° 0 mm 1 mps 756 mmHg 34%
    11:00 +23°C° 0 mm 1 mps 756 mmHg 32%
    12:00 +24°C° 0 mm 2 mps 756 mmHg 30%
    13:00 +25°C° 0 mm 2 mps 755 mmHg 28%
    14:00 +25°C° 0 mm 2 mps 755 mmHg 29%
    15:00 +24°C° 0 mm 2 mps 755 mmHg 30%
    16:00 +23°C° 0 mm 2 mps 755 mmHg 31%
    17:00 +21°C° 0 mm 2 mps 755 mmHg 34%
    18:00 +20°C° 0 mm 2 mps 755 mmHg 37%
    19:00 +18°C° 0 mm 2 mps 755 mmHg 39%
    20:00 +19°C° 0 mm 1 mps 755 mmHg 41%
    21:00 +18°C° 0 mm 1 mps 756 mmHg 43%
    22:00 +16°C° 0 mm 1 mps 756 mmHg 45%
    23:00 +16°C° 0 mm 1 mps 756 mmHg 47%

    19 October, Friday

    Time Temperature Precipitation Wind Pressure Humidity
    00:00 +16°C° 0 mm 1 mps 756 mmHg 49%
    01:00 +15°C° 0 mm 1 mps 756 mmHg 51%
    02:00 +14°C° 0 mm 0 mps 756 mmHg 53%
    03:00 +13°C° 0 mm 0 mps 756 mmHg 55%
    04:00 +13°C° 0 mm 0 mps 756 mmHg 56%
    05:00 +13°C° 0 mm 0 mps 756 mmHg 56%
    06:00 +14°C° 0 mm 1 mps 756 mmHg 57%
    07:00 +14°C° 0 mm 1 mps 756 mmHg 57%
    08:00 +16°C° 0 mm 1 mps 756 mmHg 51%
    09:00 +19°C° 0 mm 1 mps 756 mmHg 46%
    10:00 +21°C° 0 mm 1 mps 756 mmHg 41%
    11:00 +22°C° 0 mm 1 mps 756 mmHg 39%
    12:00 +23°C° 0 mm 2 mps 756 mmHg 36%
    13:00 +24°C° 0 mm 2 mps 756 mmHg 34%
    14:00 +24°C° 0 mm 2 mps 756 mmHg 36%
    15:00 +23°C° 0 mm 2 mps 756 mmHg 38%
    16:00 +23°C° 0 mm 2 mps 756 mmHg 39%
    17:00 +21°C° 0 mm 1 mps 756 mmHg 43%
    18:00 +20°C° 0 mm 1 mps 756 mmHg 48%
    19:00 +19°C° 0 mm 1 mps 756 mmHg 52%
    20:00 +18°C° 0 mm 1 mps 756 mmHg 55%
    21:00 +18°C° 0 mm 1 mps 756 mmHg 57%
    22:00 +16°C° 0 mm 1 mps 756 mmHg 59%
    23:00 +16°C° 0 mm 1 mps 757 mmHg 61%

    20 October, Saturday

    Time Temperature Precipitation Wind Pressure Humidity
    00:00 +15°C° 0 mm 2 mps 757 mmHg 63%
    01:00 +15°C° 0 mm 2 mps 757 mmHg 65%
    02:00 +14°C° 0 mm 2 mps 757 mmHg 67%
    03:00 +14°C° 0 mm 2 mps 757 mmHg 69%
    04:00 +13°C° 0 mm 2 mps 757 mmHg 71%
    05:00 +13°C° 0 mm 2 mps 757 mmHg 71%
    06:00 +13°C° 0 mm 2 mps 757 mmHg 71%
    07:00 +14°C° 0 mm 2 mps 758 mmHg 72%
    08:00 +15°C° 0 mm 2 mps 758 mmHg 64%
    09:00 +17°C° 0 mm 3 mps 758 mmHg 57%
    10:00 +19°C° 0 mm 3 mps 758 mmHg 50%
    11:00 +20°C° 0 mm 3 mps 758 mmHg 47%
    12:00 +21°C° 0 mm 4 mps 758 mmHg 44%
    13:00 +22°C° 0 mm 4 mps 758 mmHg 41%
    14:00 +22°C° 0 mm 4 mps 758 mmHg 42%
    15:00 +21°C° 0 mm 3 mps 757 mmHg 44%
    16:00 +21°C° 0 mm 3 mps 757 mmHg 46%
    17:00 +20°C° 0 mm 3 mps 758 mmHg 50%
    18:00 +18°C° 0 mm 3 mps 758 mmHg 54%
    19:00 +17°C° 0 mm 3 mps 758 mmHg 58%
    20:00 +16°C° 0 mm 3 mps 758 mmHg 61%
    21:00 +16°C° 0 mm 3 mps 759 mmHg 64%
    22:00 +14°C° 0 mm 3 mps 759 mmHg 66%
    23:00 +14°C° 0 mm 3 mps 759 mmHg 66%
    Show more